This demonstration page uses our WeatherBlox Daily Observations layout. Learn more.

Left ArrowRight Arrow

39.92423, -83.80882

Hourly Observations for March 21, 2015

Temp ( °F °C ) Dew Point ( °F °C ) Humidity (%) Winds ( mph kmh ) Pressure ( in mb ) Visibility ( mi km ) Precip ( " mm )
12:56 am 00:56 Cloudy with Mist and Fog 43 6.1 40 4.4 89 89 WSW 7 11 30.12 1020 5 8 0.00 0.00
1:56 am 01:56 Cloudy with Haze 44 6.6 39 3.8 83 83 WSW 7 11 30.12 1020 6 10 0.00 0.00
2:56 am 02:56 Cloudy with Haze 44 6.6 38 3.3 80 80 W 9 15 30.13 1020 6 10 0.00 0.00
3:56 am 03:56 Cloudy 44 6.6 38 3.3 80 80 W 10 17 30.11 1020 7 11 0.00 0.00
4:56 am 04:56 Cloudy with Haze 43 6.1 38 3.3 82 82 WSW 9 15 30.10 1019 6 10 0.00 0.00
5:56 am 05:56 Cloudy with Haze 43 6.1 38 3.3 82 82 SW 13 20 30.08 1019 6 10 0.00 0.00
6:35 am 06:35 Mostly Clear with Mist and Fog 39 4 37 3 93 93 WSW 7 11 30.09 1019 6 10 0.00 0.00
6:56 am 06:56 Clear with Mist and Fog 39 3.8 36 2.2 89 89 SW 7 11 30.09 1019 6 10 0.00 0.00
7:20 am 07:20 Mostly Cloudy with Mist and Fog 39 4 37 3 93 93 SW 8 13 30.12 1020 6 10 0.00 0.00
7:56 am 07:56 Cloudy with Mist and Fog 41 5 38 3.3 89 89 SW 9 15 30.10 1019 5 8 0.00 0.00
8:29 am 08:29 Partly Cloudy with Mist and Fog 41 5 37 3 87 87 SW 8 13 30.12 1020 4 6 0.00 0.00
8:56 am 08:56 Partly Cloudy with Mist and Fog 42 5.5 39 3.8 89 89 WSW 14 22 30.11 1020 5 8 0.00 0.00
9:10 am 09:10 Mostly Cloudy with Mist and Fog 43 6 39 4 87 87 WSW 14 22 30.12 1020 4 6 0.00 0.00
9:56 am 09:56 Mostly Cloudy with Haze 46 7.7 41 5 83 83 WSW 16 26 30.11 1020 5 8 0.00 0.00
10:48 am 10:48 Mostly Cloudy with Haze 48 9 43 6 82 82 WSW 15 24 30.12 1020 5 8 0.00 0.00
10:56 am 10:56 Hazy 49 9.4 42 5.5 77 77 WSW 15 24 30.11 1020 5 8 0.00 0.00
11:56 am 11:56 Hazy 53 11.6 42 5.5 66 66 WSW 13 20 30.10 1019 5 8 0.00 0.00
12:56 pm 12:56 Hazy 56 13.3 42 5.5 59 59 WSW 15 24 30.09 1019 6 10 0.00 0.00
1:56 pm 13:56 Hazy 59 15 43 6.1 56 56 W 20 31 30.07 1018 6 10 0.00 0.00
2:56 pm 14:56 Hazy 62 16.6 44 6.6 52 52 WSW 15 24 30.05 1018 6 10 0.00 0.00
3:56 pm 15:56 Hazy 62 16.6 43 6.1 50 50 W 16 26 30.04 1017 6 10 0.00 0.00
4:56 pm 16:56 Hazy 61 16.1 43 6.1 52 52 NW 15 24 30.05 1018 6 10 0.00 0.00
5:56 pm 17:56 Hazy 56 13.3 43 6.1 62 62 NNW 17 28 30.07 1018 5 8 0.00 0.00
6:56 pm 18:56 Hazy 52 11.1 40 4.4 64 64 NNW 12 19 30.09 1019 5 8 0.00 0.00
7:56 pm 19:56 Hazy 47 8.3 39 3.8 74 74 NNW 9 15 30.13 1020 5 8 0.00 0.00
8:56 pm 20:56 Hazy 45 7.2 37 2.7 73 73 NW 6 9 30.15 1021 6 10 0.00 0.00
9:56 pm 21:56 Hazy 44 6.6 37 2.7 76 76 NW 7 11 30.16 1022 6 10 0.00 0.00
10:56 pm 22:56 Clear 43 6.1 35 1.6 73 73 NNW 14 22 30.17 1022 7 11 0.00 0.00
11:56 pm 23:56 Clear 39 3.8 28 -2.2 65 65 NNW 9 15 30.19 1023 8 13 0.00 0.00

Powered by AerisWeather